Tracking 20037 objects as of 20-Nov-2019
Live streaming from Space Station
objects crossing your sky now

GEOS 2

Track GEOS 2 now!
GEOS 2 is classified as:


NORAD ID: 10981
Int'l Code: 1978-071A
Perigee: 36,018.7 km
Apogee: 36,071.7 km
Inclination: 11.2 °
Period: 1,449.0 minutes
Semi major axis: 42416 km
RCS: 2.0304 m2 (large)
Launch date: July 14, 1978
Source: European Space Agency (ESA)
Launch site: AIR FORCE EASTERN TEST RANGE (AFETR)
aabbcc
Your satellite tracking list
Your tracking list is empty




NASA's NSSDC Master Catalog

Two Line Element Set (TLE):
1 10981U 78071A   19323.72354810 -.00000181  00000-0  00000+0 0  9990
2 10981  11.2161 312.7394 0006247 329.7757  32.8311  0.99381556150102
Source of the keplerian elements: AFSPC